Regional Weather Roundup
Issued by NWS Wakefield, VA

Home | Current Version | Previous Version | Text Only | Print | Product List | Glossary Off
Versions: 1 2 3 4 5 6 7 8 9 10 11 12 13 14 15 16 17 18 19 20 21 22 23 24 25 26 27 28 29 30 31 32 33 34 35 36 37 38 39 40 41 42 43 44 45 46 47 48 49 50

000
ASUS41 KAKQ 281510
RWRAKQ

REGIONAL WEATHER ROUNDUP
NATIONAL WEATHER SERVICE WAKEFIELD VA
1100 AM EDT THU AUG 28 2014

Note: "fair" indicates few or no clouds below 12,000 feet with no
significant weather and/or obstructions to visibility. * = Denotes
station may not report precipitation (e.g., rain,snow,etc.),
thunder or fog.

VAZ042-051-052>054-056-281600-
NORTHERN VIRGINIA

CITY           SKY/WX    TMP DP  RH WIND       PRES   REMARKS
WASH NATIONAL  MOSUNNY   82  63  52 NW9       29.99S
DULLES         MOSUNNY   76  58  53 N13       30.02R
FORT BELVOIR   MOSUNNY   79  63  56 NW10G16   30.00S
QUANTICO       MOSUNNY   80  64  58 N12       30.00S
FREDERICKSBRG* SUNNY     81  59  47 N13       29.99R
STAFFORD*      SUNNY     78  60  53 N12       30.04S
WARRENTON      SUNNY     80  64  59 NW13G20   30.01S
CULPEPER*      SUNNY    N/A N/A N/A N9G16     30.02S
MANASSAS*      SUNNY     79  61  53 N13G18    30.01
LEESBURG*      MOSUNNY   77  64  65 NW13G18   30.03S
WINCHESTER     SUNNY     75  57  53 NW12      30.04S
$$

VAZ048-049-060>072-079>083-281600-
CENTRAL AND SOUTH CENTRAL VIRGINIA...AND NORTH CENTRAL NORTH CAROLINA

CITY           SKY/WX    TMP DP  RH WIND       PRES   REMARKS
RICHMOND       CLOUDY    85  68  56 N9        29.98S
CHESTERFIELD*  PTSUNNY   82  63  51 N10       30.01R
HANOVER        MOSUNNY   83  69  62 VRB5      30.00S
TAPPAHANNOCK*  MOSUNNY   82  59  45 N6        29.98S
CHARLOTTSVILLE MOSUNNY   82  66  58 CALM      30.01R
ORANGE*        SUNNY     79  64  61 NW8       30.03R
LOUISA*        SUNNY     81  70  69 NE5       30.00R
FARMVILLE*     PTSUNNY   82  68  61 CALM      29.99R
SOUTH HILL*    PTSUNNY   82  72  69 N5        30.05R
ROANOKE RAPIDS SUNNY     82  70  65 N8        29.99R
RALEIGH        MOSUNNY   84  69  60 NE6       30.02R
$$

VAZ088>098-281600-
SOUTHEAST VIRGINIA

CITY           SKY/WX    TMP DP  RH WIND       PRES   REMARKS
NORFOLK        MOSUNNY   81  71  71 N13       29.96R
VIRGINIA BEACH PTSUNNY   82  73  74 NW17      29.94S
NORFOLK NAVAL  PTSUNNY   84  72  67 N12       29.98R
WEST POINT*    MOSUNNY   85  66  53 N6        29.98S
NEWPORT NEWS   MOSUNNY   85  71  63 N6        29.97R
LANGLEY AFB    MOSUNNY   81  73  75 N10       29.95S
FORT EUSTIS    MOSUNNY   81  67  61 VRB7      29.95S
WILLIAMSBURG*  MOSUNNY   84  72  65 CALM      29.98R
FRANKLIN*      SUNNY     82  70  65 N8        29.97S
WAKEFIELD      MOSUNNY   84  69  60 N8        29.97S
$$

VAZ020-022-025-037-045-281600-
WESTERN AND SOUTHWEST VIRGINIA

CITY           SKY/WX    TMP DP  RH WIND       PRES   REMARKS
STAUNTON*      SUNNY     80  63  56 N6        30.06R
HOT SPRINGS VA MOSUNNY   68  60  75 NW14      30.20R
LYNCHBURG      MOSUNNY   80  69  69 W5        30.05R
DANVILLE       SUNNY     86  70  58 VRB6      30.02S
MARTINSVILLE   SUNNY     84  69  59 NW6       30.07S
ROANOKE        PTSUNNY   79  67  66 W5        30.07S
BLACKSBURG     MOSUNNY   77  72  83 NW5       30.14S
DUBLIN*        MOSUNNY   78  69  74 NW3       30.14S
MARION*        MOSUNNY  N/A N/A N/A SW7       30.18S
HILLSVILLE*    SUNNY     74  65  73 N7        30.16R
RICHLANDS*     CLOUDY    74  65  73 CALM      30.18R
WISE*          CLOUDY    77  64  65 CALM      30.19R
ABINGDON*      CLOUDY    79  65  63 CALM      30.15R
$$

MDZ021>025-VAZ099-100-281600-
SOUTHERN MARYLAND AND THE DELMARVA PENINSULA

CITY           SKY/WX    TMP DP  RH WIND       PRES   REMARKS
PATUXENT RIVER MOSUNNY   80  68  66 N10       29.97S
BAY BRIDGE APT   N/A     77  61  57 N9        29.97F
LEONARDTOWN    PTSUNNY   79  64  61 NW5       29.99S
DOVER          SUNNY     78  61  56 NW14      29.94S
GEORGETOWN     SUNNY     79  61  53 VRB6      29.95S
EASTON         SUNNY     81  63  54 N9        30.00S
CAMBRIDGE      SUNNY     79  61  53 N9        29.96S
SALISBURY      SUNNY     82  63  52 N10       29.94S
OCEAN CITY     MOSUNNY   82  67  60 N9        29.93S
WALLOPS ISLAND PTSUNNY   82  69  64 N10       29.94S
ACCOMACK*      MOSUNNY   81  68  65 N5        29.95R
$$

NCZ012>017-030>032-281600-
EASTERN NORTH CAROLINA

CITY           SKY/WX    TMP DP  RH WIND       PRES   REMARKS
ELIZABETH CITY MOSUNNY   82  70  66 NW7       29.96S
AHOSKIE*       SUNNY     80  69  68 N3        29.98S
EDENTON*       MOSUNNY   80  68  66 W3        29.97S
CURRITUCK*     MOSUNNY   81  68  64 W5        29.97R
KILL DEVIL HLS MOSUNNY   79  70  73 W9        29.95R
MANTEO         MOSUNNY   80  68  65 W8        29.96S
CAPE HATTERAS  SUNNY     80  69  69 W9        29.98R
GOLDSBORO      MOSUNNY   82  72  71 W7        29.98R
WASHINGTON     MOSUNNY   83  64  52 W6        29.99R
GREENVILLE     MOSUNNY   81  68  65 N5        30.00S
NEW BERN       SUNNY     86  64  47 W7        30.00S
WILMINGTON     SUNNY     84  63  49 W8        30.01F
$$

VAZ048-281600-
ELSEWHERE

CITY           SKY/WX    TMP DP  RH WIND       PRES   REMARKS
HARRISBURG PA  MOSUNNY   74  57  55 NW17      30.01R
BALTIMORE      MOSUNNY   79  62  56 N7        29.98S
ANNAPOLIS      SUNNY     77  60  55 NW9       29.97S
ANDREWS AFB    SUNNY     78  63  58 NW15      29.99S
WILMINGTON DE  SUNNY     76  58  53 N12       29.97R
PHILADELPHIA   MOSUNNY   75  54  47 NW14      29.96R
WILDWOOD NJ*   SUNNY     77  59  53 NW8G16    29.94S
ATLANTIC CITY  SUNNY     77  58  51 NW12      29.92S
HENDERSON NC   SUNNY     81  68  64 N5        30.02R
GREENSBORO     MOSUNNY   86  67  52 N5        30.04R
ROCKY MOUNT    MOSUNNY   79  68  69 CALM      30.00R
FAYETTEVILLE   SUNNY     87  62  43 W6        30.00S
CHARLOTTE      SUNNY     83  62  49 CALM      30.05S
$$

VAZ100-281600-
MARINE

STATION/POSITION TIME  TEMP    WIND        PRES    WAVE   SWELL
                       AIR SEA DIR/SP/G            HT/PER HT/PER
                 (UTC) (F)     (DEG/KT/KT) (MB)    (FT/S) (FT/S)
44066 TX TWR #4  1500   72 73  340/ 17/ 23 1010.4R   8/13   7/13
CAPE MAY NJ      1500   78 80  320/  7/ 16 1013.2S
LEWES DE         1500   74 76  340/ 16/ 20 1013.7S
15NM E FENWICK I 1500   75 74              1013.0R   5/13
OCEAN-CITY-INLET 1500   77 74   20/ 10/ 12 1013.1S
WACHAPREAGUE VA  1500   82 78  330/  4/ 10 1013.9S
THOMAS POINT MD  1500   75 78  350/ 13/ 14 1015.6F
GOOSES REEF MD   1500   75      20/ 14/ 14 1015.4R
COVE POINT MD    1500   75      20/ 14/ 16 1014.7S
SOLOMONS ISLAND  1500      80                N/A
BISHOPS HEAD MD  1500   79 78  350/  9/ 13 1014.1S
PINEY POINT MD   1500          350/  9/ 10   N/A
POTOMAC MD       1500   77      10/ 14/ 17 1014.3R
CAMBRIDGE MD     1500   76 78  330/ 12/ 15 1014.4R
LEWISETTA VA     1500   79 79  350/  8/ 11 1014.5F
RAPPAHANNOCK LGT 1500          350/ 18/ 19 1014.8R
STINGRAY PT      1500   78     360/ 12/ 14   N/A
YORK RVR RNG VA  1500   79      10/ 10/ 12 1013.9R
YORKTOWN VA      1500   79 79  360/  3/  7 1014.3R
JAMESTOWN VA     1500   78      20/  4/ 10   N/A
DOMINION TERM VA 1500   81     340/  4/  9 1014.4F
KIPTOPEKE VA     1500      80  360/ 12/ 15   N/A
CHES BAY BRIDGE  1500   77 78  340/ 13/ 15 1013.9R
CAPE HENRY VA    1500   77     330/ 16/ 17 1012.9S
CHESAPEAKE LGHT  1400   78     320/ 11/ 11 1014.5R
WILLOUBY STN VA  1500   78     360/ 11/ 13 1013.2S
S CRANEY ISL VA  1500          330/  9/ 11 1014.3R
CAPE HENRY BUOY  1500      76                N/A     3/13   2/13
1ST LANDING BUOY 1500   78     350/ 17/ 21 1013.8R
CAPE CHARLES BUO 1500      76                N/A     4/13   3/13
OFFSHORE WE BUOY 1500      75                N/A     4/13   3/13
64NM E OF VA BCH 1500   76 75  290/ 12/ 14 1012.7R   4/12   3/12
DUCK PIER NC     1500   78 76  290/ 10/ 11 1013.6R
44056 DUCK FRF   1500                        N/A     3/10   2/13
OREGON INLET NC  1500   80 77  270/  7/ 10 1014.2S
HATTERAS NC      1500   79 78  270/ 12/ 14 1015.5R
DIAMOND SHLS NC  1500   79     270/ 16/ 17 1014.9R   5/11   5/11
CAPE LOOKOUT NC  1400   80     270/ 10/ 11 1015.6F
$$


USA.gov is the U.S. government's official web portal to all federal, state and local government web resources and services.